{"data":{"norad_id":56301,"intl_designator":"2023-056R","name":"STARLINK-30101","alt_names":[],"object_type":"PAYLOAD","status":"ACTIVE","operator":null,"country":"US","launch_date":"2023-04-19","launch_site_code":"AFETR","launch_vehicle":null,"mission":null,"orbit_class":"UNKNOWN","rcs_meters":null,"size_class":null,"mass_kg":null,"dimensions":null,"purposes":["comms"],"wikipedia_slug":null,"has_3d_model":false,"image_url":null,"decayed_at":null,"tle_current":{"epoch":"2026-05-24T23:41:04.252128Z","epoch_age_seconds":83159,"freshness":"FRESH","line1":"1 56301U 23056R   26144.98685477  .00007048  00000+0  26755-3 0  9998","line2":"2 56301  42.9999 137.5922 0001429 267.3002  92.7686 15.27313017171775","mean_motion":15.27313017,"eccentricity":0.0001429,"inclination_deg":42.9999,"raan_deg":137.5922,"arg_perigee_deg":267.3002,"mean_anomaly_deg":92.7686,"bstar":0.00026755,"rev_number":17177,"period_min":94.283227077348,"perigee_km":482.86807789184,"apogee_km":484.82923339222,"semimajor_km":6861.985655642,"source":"CELESTRAK","updated_at":"2026-05-25T13:38:17.967197Z"}}}